Hourly Data Report for January 20, 2021

TORONTO CITY
ONTARIO
Current Station Operator: ECCC - MSC

43°40'00.000" N
79°24'00.000" W
112.50 m
6158355
71508
XTO

Download Data

Hourly Data (January 2021)
Hourly Data Report for January 20, 2021
TIME
LST
Temp Definition
°C
Dew Point Definition
°C
Rel Hum Definition
%
Precip. Amount Definition
mm

Wind Dir Definition
10's deg

Wind Spd Definition
km/h
Visibility Definition
km
Stn Press Definition
kPa
Hmdx Definition


Wind Chill Definition


Weather Definition


00:00 -1.9 -8.9 59 0.0       99.97     LegendNANA
01:00 -2.1 -9.7 56 0.0       99.89     LegendNANA
02:00 -2.5 -10.2 55 0.0       99.85     LegendNANA
03:00 -3.1 -9.0 63 0.0       99.88     LegendNANA
04:00 -3.6 -9.2 65 0.0       99.88     LegendNANA
05:00 -3.9 -9.0 68 0.0       99.98     LegendNANA
06:00 -4.4 -10.4 63 0.0       100.14     LegendNANA
07:00 -5.5 -11.0 65 0.0       100.23     LegendNANA
08:00 -6.4 -10.9 70 0.0       100.34     LegendNANA
09:00 -6.6 -11.5 68 0.0       100.45     LegendNANA
10:00 -6.5 -10.7 72 0.0       100.53     LegendNANA
11:00 -5.4 -10.0 70 0.0       100.57     LegendNANA
12:00 -5.4 -12.2 59 0.0       100.60     LegendNANA
13:00 -4.9 -11.9 58 0.0       100.58     LegendNANA
14:00 -4.3 -11.4 57 0.0       100.53     LegendNANA
15:00 -3.6 -12.4 51 0.0       100.48     LegendNANA
16:00 -3.5 -11.8 52 0.0       100.47     LegendNANA
17:00 -3.9 -11.5 55 0.0       100.31     LegendNANA
18:00 -3.4 -10.2 59 0.0       100.24     LegendNANA
19:00 -3.8 -11.1 57 0.0       100.17     LegendNANA
20:00 -4.0 -11.6 55 0.0       100.14     LegendNANA
21:00 -3.7 -10.5 59 0.0       100.03     LegendNANA
22:00 -2.6 -8.2 65 0.0       99.79     LegendNANA
23:00 -1.6 -6.8 67 0.0       99.59     LegendNANA

Notes on Data Quality.

Legend

  • E = Estimated
  • M = Missing
  • NA = Not Available*
  • [empty] = Indicates an unobserved value
Date modified: